FW3687 Weather Reports


time (UTC)temp
F
wind
direction
speed
knots
gust
knots
rain 1hr
in
rain 24hr
in
rain mn
in
humidity
%
barometer
mb
20260507115051 43 15 0.0 0.0 0.00 0.00 0.00 54 1019.6
20260507114551 43 15 0.0 0.0 0.00 0.00 0.00 55 1019.6
20260507113551 43 15 0.0 0.0 0.00 0.00 0.00 55 1019.5
20260507112551 43 15 0.0 0.0 0.00 0.00 0.00 55 1019.5
20260507111551 43 15 0.0 0.0 0.00 0.00 0.00 55 1019.5
20260507111051 43 15 0.0 0.0 0.00 0.00 0.00 55 1019.5
20260507110551 43 15 0.0 0.0 0.00 0.00 0.00 55 1019.3
20260507105051 43 15 0.0 0.0 0.00 0.00 0.00 55 1019.3
20260507104551 43 15 0.0 0.0 0.00 0.00 0.00 56 1019.4
20260507104052 43 15 0.0 0.0 0.00 0.00 0.00 56 1019.3
20260507103551 44 15 0.0 0.0 0.00 0.00 0.00 56 1019.2
20260507103051 44 15 0.0 0.0 0.00 0.00 0.00 56 1019.3
20260507102551 44 15 0.0 0.0 0.00 0.00 0.00 57 1019.4
20260507101551 44 15 0.0 0.0 0.00 0.00 0.00 57 1019.3
20260507101051 44 15 0.0 0.0 0.00 0.00 0.00 57 1019.4
20260507100551 44 15 0.0 0.0 0.00 0.00 0.00 58 1019.4
20260507100051 44 15 0.0 0.0 0.00 0.00 0.00 58 1019.3
20260507095551 44 15 0.0 0.0 0.00 0.00 0.00 58 1019.1
20260507094551 45 15 0.0 0.0 0.00 0.00 0.00 57 1019.1
20260507094051 45 15 0.0 0.0 0.00 0.00 0.00 57 1018.9
20260507093552 45 15 0.0 0.0 0.00 0.00 0.00 57 1019.0
20260507093051 45 15 0.0 0.0 0.00 0.00 0.00 58 1019.1
20260507092550 45 15 0.0 0.0 0.00 0.00 0.00 58 1019.0
20260507092050 45 15 0.0 0.0 0.00 0.00 0.00 58 1019.1
20260507091551 45 15 0.0 0.0 0.00 0.00 0.00 58 1019.2
20260507091051 45 15 0.0 0.0 0.00 0.00 0.00 58 1019.3
20260507090051 45 15 0.0 0.0 0.00 0.00 0.00 58 1019.1
20260507085551 45 15 0.0 0.0 0.00 0.00 0.00 58 1019.2
20260507085050 45 15 0.0 0.0 0.00 0.00 0.00 59 1019.4
20260507084551 45 15 0.0 0.0 0.00 0.00 0.00 59 1019.5
20260507084050 45 15 0.0 0.0 0.00 0.00 0.00 59 1019.4
20260507083551 45 15 0.0 0.0 0.00 0.00 0.00 59 1019.5
20260507083051 45 15 0.0 0.0 0.00 0.00 0.00 60 1019.5
20260507082551 45 15 0.0 0.0 0.00 0.00 0.00 60 1019.4
20260507082051 45 15 0.0 0.0 0.00 0.00 0.00 60 1019.4
20260507081551 45 15 0.0 0.0 0.00 0.00 0.00 60 1019.4
20260507081052 46 15 0.0 0.0 0.00 0.00 0.00 59 1019.2
20260507080551 46 15 0.0 0.0 0.00 0.00 0.00 59 1019.2
20260507080051 46 15 0.0 0.0 0.00 0.00 0.00 59 1019.2
20260507075551 46 15 0.0 0.0 0.00 0.00 0.00 59 1019.1
20260507075051 46 15 0.0 0.0 0.00 0.00 0.00 59 1019.3
20260507074552 46 15 0.0 0.0 0.00 0.00 0.00 59 1019.4
20260507074051 46 15 0.0 0.0 0.00 0.00 0.00 59 1019.5
20260507073551 47 15 0.0 0.0 0.00 0.00 0.00 58 1019.3
20260507073051 47 15 0.0 0.0 0.00 0.00 0.00 58 1019.2
20260507072051 47 15 0.0 0.0 0.00 0.00 0.00 58 1019.2
20260507071551 47 15 0.0 0.0 0.00 0.00 0.00 58 1019.5
20260507070551 47 15 0.0 0.0 0.00 0.00 0.00 57 1019.6
20260507070051 48 15 0.0 0.0 0.00 0.00 0.00 57 1019.5
20260507065552 48 15 0.0 0.0 0.00 0.00 0.00 56 1019.7
20260507065050 48 15 0.0 0.0 0.00 0.00 0.00 57 1019.7
20260507064551 48 15 0.0 0.0 0.00 0.00 0.00 56 1019.7
20260507063550 49 15 0.0 0.0 0.00 0.00 0.00 55 1019.8
20260507063051 49 15 0.0 0.0 0.00 0.00 0.00 55 1019.8
20260507062551 49 15 0.0 0.0 0.00 0.00 0.00 55 1019.6
20260507062051 49 15 0.0 0.0 0.00 0.00 0.00 54 1019.7
20260507060551 50 15 0.0 0.0 0.00 0.00 0.00 53 1019.5
20260507060051 50 15 0.0 0.0 0.00 0.00 0.00 53 1019.2
20260507055552 51 15 0.0 0.0 0.00 0.00 0.00 52 1019.1
20260507054551 51 15 0.0 0.0 0.00 0.00 0.00 52 1019.1
20260507054051 51 15 0.0 1.7 0.00 0.00 0.00 52 1019.2
20260507053551 51 15 0.9 1.7 0.00 0.00 0.00 52 1019.2
20260507053051 52 15 0.0 0.9 0.00 0.00 0.00 52 1019.1
20260507052551 52 15 0.0 0.9 0.00 0.00 0.00 52 1019.2
20260507052051 52 15 0.0 0.0 0.00 0.00 0.00 51 1019.1
20260507051551 53 15 0.0 0.0 0.00 0.00 0.00 49 1019.0
20260507051051 53 15 0.0 0.9 0.00 0.00 0.00 49 1019.0
20260507050551 53 15 0.0 0.9 0.00 0.00 0.00 48 1019.0
20260507045550 53 15 0.0 0.9 0.00 0.00 0.00 48 1018.9
20260507045050 53 15 0.0 0.9 0.00 0.00 0.00 48 1018.9
20260507044551 53 15 0.0 1.7 0.00 0.00 0.00 49 1019.0
20260507044051 53 15 0.9 1.7 0.00 0.00 0.00 49 1019.1
20260507041552 53 14 0.0 0.0 0.00 0.00 0.00 49 1018.9
20260507041051 54 14 0.0 0.9 0.00 0.00 0.00 48 1019.0
20260507040551 54 14 0.0 0.9 0.00 0.00 0.00 48 1018.9
20260507040051 54 14 0.0 1.7 0.00 0.00 0.00 48 1019.1
20260507035551 54 15 0.0 0.9 0.00 0.00 0.00 48 1019.2
20260507035051 54 15 0.0 1.7 0.00 0.00 0.00 48 1019.1
20260507034551 54 15 0.9 1.7 0.00 0.00 0.00 47 1018.9
20260507033551 55 15 0.0 0.9 0.00 0.00 0.00 46 1018.9
20260507033051 55 15 0.0 0.9 0.00 0.00 0.00 47 1018.9
20260507032551 55 15 0.0 0.9 0.00 0.00 0.00 46 1018.8
20260507032051 55 15 0.0 1.7 0.00 0.00 0.00 46 1018.8
20260507031551 55 13 0.0 1.7 0.00 0.00 0.00 46 1018.8
20260507031051 55 14 0.0 2.6 0.00 0.00 0.00 45 1018.8
20260507030551 56 17 0.9 3.5 0.00 0.00 0.00 45 1018.6
20260507030051 56 38 1.7 2.6 0.00 0.00 0.00 45 1018.6
20260507025551 56 18 0.0 3.5 0.00 0.00 0.00 45 1018.7
20260507025051 56 334 0.0 3.5 0.00 0.00 0.00 45 1018.6
20260507024551 56 360 0.9 1.7 0.00 0.00 0.00 45 1018.4
20260507023551 57 355 0.9 4.3 0.00 0.00 0.00 44 1018.4
20260507023051 56 360 0.9 5.2 0.00 0.00 0.00 44 1018.4
20260507022051 57 5 0.0 2.6 0.00 0.00 0.00 45 1018.2
20260507021551 57 9 0.0 1.7 0.00 0.00 0.00 45 1018.3
20260507021051 57 5 0.0 1.7 0.00 0.00 0.00 45 1018.2
20260507020550 57 5 0.9 0.9 0.00 0.00 0.00 44 1018.1
20260507020052 57 5 0.0 1.7 0.00 0.00 0.00 44 1018.2
20260507015051 58 22 0.0 1.7 0.00 0.00 0.00 43 1018.0
20260507014551 58 20 0.0 0.9 0.00 0.00 0.00 42 1017.9
20260507013551 59 20 0.0 0.0 0.00 0.00 0.00 41 1017.9
20260507013051 59 20 0.0 0.9 0.00 0.00 0.00 40 1017.8
20260507012551 59 20 0.0 0.9 0.00 0.00 0.00 40 1017.7
20260507012050 59 20 0.0 0.0 0.00 0.00 0.00 40 1017.5
20260507011051 60 20 0.0 0.9 0.00 0.00 0.00 38 1017.5
20260507010551 60 20 0.0 0.9 0.00 0.00 0.00 38 1017.5
20260507010052 60 20 0.0 0.9 0.00 0.00 0.00 38 1017.5
20260507005551 61 20 0.0 1.7 0.00 0.00 0.00 37 1017.4
20260507005050 61 15 0.0 1.7 0.00 0.00 0.00 37 1017.4
20260507004051 61 10 0.9 3.5 0.00 0.00 0.00 37 1017.2
20260507003550 61 20 0.0 2.6 0.00 0.00 0.00 36 1017.1
20260507003051 61 355 0.0 3.5 0.00 0.00 0.00 36 1017.2
20260507002551 62 15 0.0 4.3 0.00 0.00 0.00 36 1017.1
20260507002050 62 355 2.6 4.3 0.00 0.00 0.00 35 1017.1
20260507001552 62 332 0.0 4.3 0.00 0.00 0.00 35 1017.0
20260507001051 62 5 0.0 2.6 0.00 0.00 0.00 35 1017.0
20260507000550 62 355 0.0 5.2 0.00 0.00 0.00 35 1017.0
20260507000051 62 355 0.9 5.2 0.00 0.00 0.00 35 1016.9
20260506235552 63 270 0.0 3.5 0.00 0.00 0.00 35 1016.9
20260506235050 63 168 0.0 3.5 0.00 0.00 0.00 35 1016.9
20260506234551 63 40 2.6 4.3 0.00 0.00 0.00 36 1017.0
20260506234051 63 340 3.5 3.5 0.00 0.00 0.00 36 1016.9
20260506233051 63 88 0.9 2.6 0.00 0.00 0.00 36 1016.9
20260506232051 63 25 0.9 3.5 0.00 0.00 0.00 38 1016.8
20260506231551 63 30 0.0 3.5 0.00 0.00 0.00 37 1016.8
20260506231051 63 36 2.6 4.3 0.00 0.00 0.00 36 1016.6
20260506230551 63 34 1.7 5.2 0.00 0.00 0.00 35 1016.7
20260506230051 63 324 3.5 11.3 0.00 0.00 0.00 35 1016.6
20260506225051 63 142 0.9 3.5 0.00 0.00 0.00 37 1016.6
20260506224551 63 150 1.7 4.3 0.00 0.00 0.00 37 1016.5
20260506224050 63 340 0.0 7.0 0.00 0.00 0.00 36 1016.4
20260506223551 63 349 0.0 7.0 0.00 0.00 0.00 36 1016.4
20260506223052 64 49 3.5 4.3 0.00 0.00 0.00 36 1016.3
20260506222551 63 350 0.0 4.3 0.00 0.00 0.00 38 1016.2
20260506222051 63 15 0.0 7.8 0.00 0.00 0.00 36 1016.3
20260506221551 63 5 0.0 7.8 0.00 0.00 0.00 35 1016.3
20260506221051 63 91 2.6 5.2 0.00 0.00 0.00 36 1016.3
20260506220550 63 55 0.0 5.2 0.00 0.00 0.00 35 1016.2
20260506215550 63 338 0.9 10.4 0.00 0.00 0.00 35 1016.2
20260506215052 63 97 0.0 7.0 0.00 0.00 0.00 36 1016.1
20260506214551 63 323 1.7 10.4 0.00 0.00 0.00 36 1016.1
20260506214052 64 360 5.2 9.6 0.00 0.00 0.00 35 1016.2
20260506213551 65 313 0.9 11.3 0.00 0.00 0.00 34 1016.2
20260506212550 64 9 2.6 10.4 0.00 0.00 0.00 35 1016.3
20260506212050 64 119 0.9 10.4 0.00 0.00 0.00 36 1016.2
20260506211552 64 348 3.5 9.6 0.00 0.00 0.00 36 1016.3
20260506211050 63 30 7.8 8.7 0.00 0.00 0.00 38 1016.1
20260506210052 63 32 1.7 9.6 0.00 0.00 0.00 37 1016.2
20260506205550 63 30 4.3 8.7 0.00 0.00 0.00 37 1016.4
20260506205050 63 343 2.6 8.7 0.00 0.00 0.00 38 1016.4
20260506204551 63 182 1.7 8.7 0.00 0.00 0.00 38 1016.5
20260506204050 63 24 2.6 7.8 0.00 0.00 0.00 38 1016.6
20260506203551 63 72 0.0 6.1 0.00 0.00 0.00 39 1016.6
20260506203052 62 302 2.6 8.7 0.00 0.00 0.00 39 1016.9
20260506202551 62 38 2.6 8.7 0.00 0.00 0.00 39 1016.9
20260506202050 62 46 0.0 7.0 0.00 0.00 0.00 40 1016.9
20260506201552 62 192 0.9 9.6 0.00 0.00 0.00 39 1017.0
20260506201051 62 71 1.7 9.6 0.00 0.00 0.00 39 1017.1
20260506200551 63 10 2.6 7.8 0.00 0.00 0.00 40 1017.1
20260506200051 63 46 0.0 7.8 0.00 0.00 0.00 39 1017.1
20260506195051 63 5 0.9 7.8 0.00 0.00 0.00 40 1016.9
20260506194551 63 322 0.9 7.8 0.00 0.00 0.00 39 1017.0
20260506193550 62 300 0.9 8.7 0.00 0.00 0.00 42 1016.9
20260506193052 62 38 1.7 7.0 0.00 0.00 0.00 40 1017.0
20260506192550 63 96 0.9 6.1 0.00 0.00 0.00 40 1017.0
20260506192051 63 346 3.5 6.1 0.00 0.00 0.00 39 1017.1
20260506191551 63 5 0.0 6.1 0.00 0.00 0.00 40 1017.2
20260506191051 63 5 3.5 7.0 0.00 0.00 0.00 39 1017.3
20260506190052 61 350 1.7 5.2 0.00 0.00 0.00 42 1017.6
20260506185551 61 78 0.9 4.3 0.00 0.00 0.00 40 1017.7
20260506184551 62 26 0.0 2.6 0.00 0.00 0.00 39 1017.7
20260506184051 62 88 0.9 3.5 0.00 0.00 0.00 39 1017.6
20260506183051 63 36 0.0 5.2 0.00 0.00 0.00 40 1017.8
20260506182050 63 83 0.0 3.5 0.00 0.00 0.00 40 1017.8
20260506181551 63 18 0.0 5.2 0.00 0.00 0.00 39 1017.8
20260506180551 63 123 0.9 7.0 0.00 0.00 0.00 40 1018.0
20260506180051 62 23 0.9 7.0 0.00 0.00 0.00 39 1017.9
20260506175551 62 33 0.0 4.3 0.00 0.00 0.00 40 1018.0
20260506175051 63 15 1.7 4.3 0.00 0.00 0.00 40 1017.9
20260506174551 63 106 0.0 4.3 0.00 0.00 0.00 41 1018.0
20260506174051 63 151 0.9 4.3 0.00 0.00 0.00 40 1018.3
20260506173551 62 170 0.0 4.3 0.00 0.00 0.00 40 1018.3
20260506173051 61 342 0.0 4.3 0.00 0.00 0.00 42 1018.3
20260506172551 61 134 0.0 4.3 0.00 0.00 0.00 41 1018.5
20260506172051 60 143 0.0 5.2 0.00 0.00 0.00 42 1018.6
20260506171551 60 142 0.0 7.8 0.00 0.00 0.00 43 1018.8
20260506171050 60 164 3.5 7.8 0.00 0.00 0.00 42 1018.9
20260506170550 60 137 0.0 4.3 0.00 0.00 0.00 41 1019.2
20260506165553 59 126 0.0 8.7 0.00 0.00 0.00 42 1019.5
20260506165050 59 145 2.6 8.7 0.00 0.00 0.00 42 1019.4
20260506164550 58 78 1.7 7.0 0.00 0.00 0.00 43 1019.5
20260506164050 58 64 0.0 4.3 0.00 0.00 0.00 44 1019.3
20260506163550 57 68 0.0 7.8 0.00 0.00 0.00 45 1019.1
20260506163051 57 41 1.7 9.6 0.00 0.00 0.00 45 1019.0
20260506162550 57 307 6.1 9.6 0.00 0.00 0.00 46 1018.9
20260506162051 57 292 0.0 9.6 0.00 0.00 0.00 45 1019.1
20260506161050 57 323 2.6 9.6 0.00 0.00 0.00 45 1019.0
20260506160550 57 341 1.7 13.0 0.00 0.00 0.00 45 1018.9
20260506160052 57 97 1.7 13.0 0.00 0.00 0.00 46 1018.8
20260506155550 57 355 0.9 7.0 0.00 0.00 0.00 45 1018.4
20260506155051 57 360 2.6 7.0 0.00 0.00 0.00 46 1018.4
20260506154551 57 127 0.0 7.0 0.00 0.00 0.00 46 1018.3
20260506153551 56 165 0.9 3.5 0.00 0.00 0.00 47 1018.0
20260506153051 56 177 1.7 4.3 0.00 0.00 0.00 48 1017.9
20260506152551 55 150 0.0 3.5 0.00 0.00 0.00 48 1017.6
20260506151551 54 138 0.9 4.3 0.00 0.00 0.00 48 1017.5
20260506151050 54 118 0.0 9.6 0.00 0.00 0.00 48 1017.3
20260506150551 54 146 7.8 9.6 0.00 0.00 0.00 49 1017.4
20260506150051 54 138 0.9 4.3 0.00 0.00 0.00 48 1017.4
20260506145550 54 69 0.9 7.0 0.00 0.00 0.00 49 1017.4
20260506145051 54 321 1.7 7.0 0.00 0.00 0.00 49 1017.5
20260506144550 53 330 3.5 7.0 0.00 0.00 0.00 49 1017.4
20260506144051 53 355 0.0 7.0 0.00 0.00 0.00 50 1017.4
20260506143051 52 102 0.9 4.3 0.00 0.00 0.00 50 1017.4
20260506142550 52 119 3.5 4.3 0.00 0.00 0.00 50 1017.3
20260506142050 52 45 1.7 10.4 0.00 0.00 0.00 51 1017.3
20260506141551 51 89 2.6 7.8 0.00 0.00 0.00 51 1017.4
20260506140550 51 315 1.7 6.1 0.00 0.00 0.00 52 1017.6
20260506140051 51 109 1.7 6.1 0.00 0.00 0.00 52 1017.5
20260506135551 51 9 0.9 5.2 0.00 0.00 0.00 52 1017.4
20260506135051 51 5 1.7 4.3 0.00 0.00 0.00 52 1017.3
20260506134551 50 5 0.9 7.0 0.00 0.00 0.00 53 1017.3
20260506134050 50 36 1.7 9.6 0.00 0.00 0.00 53 1017.6
20260506133550 50 17 4.3 9.6 0.00 0.00 0.00 53 1017.7
20260506133051 50 309 2.6 7.8 0.00 0.00 0.00 54 1017.5
20260506132050 50 47 0.0 6.1 0.00 0.00 0.00 54 1017.6
20260506131551 50 15 1.7 4.3 0.00 0.00 0.00 55 1017.4
20260506131050 49 5 0.9 7.0 0.00 0.00 0.00 55 1017.5
20260506130550 49 57 0.0 7.0 0.00 0.00 0.00 55 1017.3
20260506130050 49 42 0.9 5.2 0.00 0.00 0.00 55 1017.3
20260506125550 49 64 0.9 5.2 0.00 0.00 0.00 56 1017.2
20260506125051 49 40 1.7 7.0 0.00 0.00 0.00 56 1017.3
20260506123051 49 5 0.9 9.6 0.00 0.00 0.00 56 1017.3
20260506122550 49 331 0.0 10.4 0.00 0.00 0.00 56 1017.0
20260506121551 49 5 2.6 12.2 0.00 0.00 0.00 56 1017.0
20260506121050 49 81 0.0 7.8 0.00 0.00 0.00 56 1016.5
20260506120550 49 26 0.0 13.0 0.00 0.00 0.00 56 1016.5
20260506120051 49 49 1.7 13.0 0.00 0.00 0.00 56 1016.5
20260506115551 49 98 0.9 10.4 0.00 0.00 0.00 57 1016.7